Weather History for Pituffik, Greenland

Change the Weather History Date:

Thursday, September 26, 2013

  Actual Average Record
Temperature  
Mean Temperature 20 °F -  
Max Temperature 26 °F 22 °F 48 °F (1998)
Min Temperature 15 °F 11 °F 3 °F (1997)
Degree Days  
Heating Degree Days 44    
Moisture  
Dew Point 13 °F    
Average Humidity 74    
Maximum Humidity 87    
Minimum Humidity 61    
Precipitation  
Precipitation 0.00 in 0.02 in - ()
Sea Level Pressure  
Sea Level Pressure 30.18 in    
Wind  
Wind Speed 6 mph ()    
Max Wind Speed 10 mph    
Max Gust Speed -    
Visibility 6.2 miles    
Events      
Averages and records for this station are not official NWS values.
T = Trace of Precipitation, MM = Missing Value Source: Averaged Metar Reports

Daily Weather History Graph

Daily Weather History Graph

Search for Another Location

Airport:

Trip Planner

Search our weather history database for the weather conditions in past years. The results will help you decide how hot, cold, wet, or windy it might be!

Date:

Astronomy

Sep. 26, 2013 Rise Set
Actual Time 7:35 AM ADT 7:13 PM ADT
Civil Twilight 6:04 AM ADT 8:43 PM ADT
Nautical Twilight 3:55 AM ADT 10:48 PM ADT
Astronomical Twilight Sun does not rise Sun does not rise
Moon No Moon Rise No Moon Set
Length of Visible Light 14h 39m
Length of Day
11h 38m
Waning Gibbous, 55% of the Moon is Illuminated
Sep 26
Waning Gibbous
Sep 27
Last Quarter
Oct 4
New
Oct 11
First Quarter
Oct 18
Full

Hourly Weather History & Observations

Time (ADT) Temp. Windchill Dew Point Humidity Pressure Visibility Wind Dir Wind Speed Gust Speed Precip Events Conditions
12:58 AM 19.9 °F 8.6 °F 16.2 °F 85% 30.17 in 6.2 mi East 10.4 mph - N/A   Overcast
1:58 AM 18.9 °F 7.2 °F 15.4 °F 87% 30.17 in 6.2 mi ESE 10.4 mph - N/A   Clear
2:58 AM 17.6 °F 5.7 °F 13.6 °F 84% 30.17 in 6.2 mi ESE 10.4 mph - N/A   Clear
3:58 AM 19.2 °F 11.3 °F 16.0 °F 87% 30.17 in 6.2 mi East 5.8 mph - N/A   Overcast
4:58 AM 21.6 °F 12.1 °F 14.2 °F 73% 30.17 in 6.2 mi ESE 8.1 mph - N/A   Overcast
5:58 AM 18.3 °F 8.2 °F 13.6 °F 82% 30.17 in 6.2 mi East 8.1 mph - N/A   Overcast
6:58 AM 18.0 °F 7.7 °F 13.3 °F 82% 30.19 in 6.2 mi ESE 8.1 mph - N/A   Partly Cloudy
7:58 AM 16.5 °F 4.3 °F 12.4 °F 84% 30.19 in 6.2 mi ESE 10.4 mph - N/A   Overcast
8:58 AM 18.0 °F 6.9 °F 12.4 °F 79% 30.19 in 6.2 mi ESE 9.2 mph - N/A   Overcast
9:58 AM 21.2 °F 12.6 °F 13.3 °F 72% 30.19 in 6.2 mi SE 6.9 mph - N/A   Overcast
10:58 AM 21.7 °F 14.3 °F 13.3 °F 70% 30.17 in 6.2 mi ESE 5.8 mph - N/A   Clear
11:58 AM 23.4 °F 17.4 °F 13.5 °F 66% 30.17 in 6.2 mi ESE 4.6 mph - N/A   Clear
12:58 PM 24.3 °F - 14.9 °F 68% 30.17 in 6.2 mi ESE 2.3 mph - N/A   Clear
1:58 PM 25.3 °F - 14.2 °F 63% 30.18 in 6.2 mi Calm Calm - N/A   Clear
2:58 PM 26.1 °F - 14.2 °F 61% 30.18 in 6.2 mi Calm Calm - N/A   Clear
3:58 PM 25.2 °F - 15.4 °F 67% 30.18 in 6.2 mi Calm Calm - N/A   Clear
4:58 PM 23.9 °F 19.5 °F 13.1 °F 63% 30.18 in 6.2 mi SSE 3.5 mph - N/A   Clear
5:58 PM 23.0 °F - 12.6 °F 64% 30.19 in 6.2 mi SSE 2.3 mph - N/A   Clear
6:58 PM 20.8 °F 14.4 °F 12.0 °F 69% 30.18 in 6.2 mi East 4.6 mph - N/A   Clear
7:58 PM 18.1 °F 7.9 °F 10.9 °F 73% 30.18 in 6.2 mi East 8.1 mph - N/A   Clear
8:58 PM 16.5 °F 5.1 °F 10.0 °F 76% 30.17 in 6.2 mi ESE 9.2 mph - N/A   Clear
9:58 PM 15.8 °F 3.4 °F 9.5 °F 76% 30.17 in 6.2 mi East 10.4 mph - N/A   Clear
10:58 PM 15.6 °F 4.9 °F 9.7 °F 77% 30.16 in 6.2 mi East 8.1 mph - N/A   Clear
11:58 PM 15.1 °F 3.3 °F 9.0 °F 77% 30.14 in 6.2 mi East 9.2 mph - N/A   Clear